Saginaw Browne, MI

12:25 AM EST on December 15, 2017 (GMT -0500)
Saginaw County-Browne

Weather History for KHYX - October, 2012

Change the Weather History Date:

Thursday, October 11, 2012

  Actual Average (KMBS) Record (KMBS)
Temperature  
Mean Temperature 46 °F -  
Max Temperature 60 °F 60 °F 80 °F (2011)
Min Temperature 32 °F 39 °F 28 °F (1996)
Degree Days  
Heating Degree Days 19    
Moisture  
Dew Point 34 °F    
Average Humidity 73    
Maximum Humidity 93    
Minimum Humidity 34    
Precipitation  
Precipitation 0.00 in - - ()
Sea Level Pressure  
Sea Level Pressure 30.07 in    
Wind  
Wind Speed 10 mph (SW)    
Max Wind Speed 26 mph    
Max Gust Speed 46 mph    
Visibility 10 miles    
Events Rain    
Averages and records for this station are not official NWS values.
T = Trace of Precipitation, MM = Missing Value Source: NWS Daily Summary

Daily Weather History Graph

Daily Weather History Graph

Search for Another Location

Airport or City:

Trip Planner

Search our weather history database for the weather conditions in past years. The results will help you decide how hot, cold, wet, or windy it might be!

Date:

Astronomy

Oct. 11, 2012 Rise Set
Actual Time 7:45 AM EDT 6:58 PM EDT
Civil Twilight 7:16 AM EDT 7:26 PM EDT
Nautical Twilight 6:43 AM EDT 7:59 PM EDT
Astronomical Twilight 6:10 AM EDT 8:32 PM EDT
Moon 3:15 AM EDT (10/11) 4:39 PM EDT (10/11)
Length of Visible Light 12h 10m
Length of Day
11h 12m
Waning Crescent, 18% of the Moon is Illuminated
Oct 11
Waning Crescent
Oct 15
New
Oct 21
First Quarter
Oct 29
Full
Nov 6
Last Quarter

Hourly Weather History & Observations

Time (EDT) Temp. Windchill Dew Point Humidity Pressure Visibility Wind Dir Wind Speed Gust Speed Precip Events Conditions
12:11 AM 33.8 °F 28.6 °F 30.2 °F 87% 30.12 in 10.0 mi SW 5.8 mph - N/A   Clear
12:31 AM 33.8 °F 28.6 °F 30.2 °F 87% 30.12 in 10.0 mi SW 5.8 mph - N/A   Clear
12:51 AM 33.8 °F 29.6 °F 28.4 °F 81% 30.12 in 10.0 mi SW 4.6 mph - N/A   Clear
1:11 AM 32.0 °F 27.5 °F 28.4 °F 87% 30.12 in 10.0 mi SW 4.6 mph - N/A   Clear
1:31 AM 32.0 °F 26.4 °F 28.4 °F 87% 30.13 in 10.0 mi SW 5.8 mph - N/A   Clear
1:51 AM 32.0 °F 27.5 °F 28.4 °F 87% 30.13 in 10.0 mi SW 4.6 mph - N/A   Clear
2:11 AM 32.0 °F 25.6 °F 28.4 °F 87% 30.12 in 10.0 mi SW 6.9 mph - N/A   Clear
2:31 AM 32.0 °F 25.6 °F 30.2 °F 93% 30.13 in 10.0 mi SW 6.9 mph - N/A   Clear
2:52 AM 32.0 °F 25.6 °F 28.4 °F 87% 30.13 in 10.0 mi SW 6.9 mph - N/A   Clear
3:12 AM 32.0 °F 26.4 °F 28.4 °F 87% 30.13 in 10.0 mi SW 5.8 mph - N/A   Clear
3:52 AM 32.0 °F 26.4 °F 30.2 °F 93% 30.12 in 10.0 mi SSW 5.8 mph - N/A   Clear
4:12 AM 32.0 °F 27.5 °F 28.4 °F 87% 30.12 in 10.0 mi SSW 4.6 mph - N/A   Clear
4:32 AM 32.0 °F 27.5 °F 30.2 °F 93% 30.11 in 10.0 mi South 4.6 mph - N/A   Clear
4:52 AM 32.0 °F 25.6 °F 30.2 °F 93% 30.11 in 10.0 mi South 6.9 mph - N/A   Scattered Clouds
5:12 AM 32.0 °F 25.6 °F 30.2 °F 93% 30.11 in 10.0 mi SSW 6.9 mph - N/A   Clear
5:32 AM 32.0 °F 26.4 °F 30.2 °F 93% 30.12 in 10.0 mi South 5.8 mph - N/A   Clear
5:52 AM 32.0 °F 25.6 °F 30.2 °F 93% 30.12 in 10.0 mi South 6.9 mph - N/A   Clear
6:13 AM 33.8 °F 27.7 °F 30.2 °F 87% 30.12 in 10.0 mi South 6.9 mph - N/A   Mostly Cloudy
6:33 AM 33.8 °F 27.7 °F 30.2 °F 87% 30.11 in 10.0 mi South 6.9 mph - N/A   Overcast
6:53 AM 33.8 °F 28.6 °F 32.0 °F 93% 30.11 in 10.0 mi South 5.8 mph - N/A   Overcast
7:13 AM 35.6 °F 29.9 °F 32.0 °F 87% 30.12 in 10.0 mi South 6.9 mph - N/A   Overcast
7:33 AM 35.6 °F 29.9 °F 32.0 °F 87% 30.11 in 10.0 mi South 6.9 mph - N/A   Mostly Cloudy
7:53 AM 35.6 °F 28.6 °F 32.0 °F 87% 30.09 in 10.0 mi South 9.2 mph - N/A   Scattered Clouds
8:13 AM 35.6 °F 29.2 °F 32.0 °F 87% 30.09 in 10.0 mi South 8.1 mph - N/A   Clear
8:33 AM 37.4 °F 30.8 °F 32.0 °F 81% 30.09 in 10.0 mi South 9.2 mph - N/A   Clear
8:53 AM 39.2 °F 33.6 °F 32.0 °F 75% 30.09 in 10.0 mi SSW 8.1 mph - N/A   Clear
9:13 AM 41.0 °F 33.1 °F 32.0 °F 70% 30.09 in 10.0 mi SSW 15.0 mph 18.4 mph N/A   Scattered Clouds
9:34 AM 41.0 °F 32.8 °F 32.0 °F 70% 30.08 in 10.0 mi SSW 16.1 mph 20.7 mph N/A   Mostly Cloudy
9:54 AM 42.8 °F 36.2 °F 32.0 °F 66% 30.07 in 10.0 mi SSW 12.7 mph 21.9 mph N/A   Scattered Clouds
10:14 AM 44.6 °F 38.4 °F 32.0 °F 61% 30.06 in 10.0 mi SSW 12.7 mph - N/A   Mostly Cloudy
10:34 AM 46.4 °F 39.2 °F 32.0 °F 57% 30.05 in 10.0 mi SSW 18.4 mph 26.5 mph N/A   Overcast
10:54 AM 46.4 °F 39.5 °F 32.0 °F 57% 30.04 in 10.0 mi SW 17.3 mph - N/A   Overcast
11:14 AM 48.2 °F - 32.0 °F 54% 30.03 in 10.0 mi SW 16.1 mph 27.6 mph N/A   Overcast
11:29 AM 50.0 °F - 32.0 °F 50% 30.01 in 10.0 mi SSW 23.0 mph 31.1 mph N/A   Overcast
11:49 AM 50.0 °F - 32.0 °F 50% 30.01 in 10.0 mi SSW 19.6 mph 26.5 mph N/A   Overcast
12:10 PM 51.8 °F - 32.0 °F 47% 30.01 in 10.0 mi SW 17.3 mph 31.1 mph N/A   Overcast
12:30 PM 51.8 °F - 32.0 °F 47% 29.99 in 10.0 mi SW 20.7 mph 29.9 mph N/A   Overcast
12:50 PM 55.4 °F - 32.0 °F 41% 29.97 in 10.0 mi SW 26.5 mph 36.8 mph N/A   Mostly Cloudy
1:10 PM 55.4 °F - 32.0 °F 41% 29.95 in 10.0 mi SW 26.5 mph 36.8 mph N/A   Scattered Clouds
1:50 PM 59.0 °F - 32.0 °F 36% 29.95 in 10.0 mi WSW 18.4 mph 46.0 mph N/A   Clear
2:10 PM 60.8 °F - 32.0 °F 34% 29.94 in 10.0 mi SW 26.5 mph 32.2 mph N/A   Clear
2:30 PM 60.8 °F - 32.0 °F 34% 29.94 in 10.0 mi WSW 25.3 mph 33.4 mph N/A   Scattered Clouds
2:50 PM 60.8 °F - 32.0 °F 34% 29.94 in 10.0 mi SW 24.2 mph 34.5 mph N/A   Mostly Cloudy
3:10 PM 60.8 °F - 32.0 °F 34% 29.94 in 10.0 mi WSW 19.6 mph 33.4 mph N/A   Mostly Cloudy
3:31 PM 60.8 °F - 33.8 °F 36% 29.94 in 10.0 mi WSW 24.2 mph 31.1 mph N/A   Mostly Cloudy
3:51 PM 60.8 °F - 33.8 °F 36% 29.95 in 10.0 mi WSW 16.1 mph 31.1 mph N/A   Overcast
4:11 PM 59.0 °F - 35.6 °F 42% 29.96 in 10.0 mi West 18.4 mph 27.6 mph N/A   Overcast
4:31 PM 57.2 °F - 35.6 °F 44% 29.98 in 10.0 mi West 23.0 mph 31.1 mph N/A   Overcast
4:51 PM 55.4 °F - 41.0 °F 58% 29.99 in 10.0 mi NW 19.6 mph 25.3 mph N/A   Overcast
5:11 PM 51.8 °F - 42.8 °F 71% 30.00 in 10.0 mi NW 15.0 mph 24.2 mph N/A   Light Drizzle
6:11 PM 46.4 °F 40.7 °F 44.6 °F 93% 30.02 in 7.0 mi WNW 12.7 mph 20.7 mph N/A Rain Rain
6:32 PM 46.4 °F 40.7 °F 44.6 °F 93% 30.03 in 10.0 mi WNW 12.7 mph - N/A   Overcast
6:52 PM 46.4 °F 42.4 °F 44.6 °F 93% 30.04 in 10.0 mi WNW 8.1 mph - N/A   Light Drizzle
7:32 PM 44.6 °F 38.4 °F 42.8 °F 93% 30.06 in 10.0 mi NNW 12.7 mph 20.7 mph N/A   Light Drizzle
7:52 PM 44.6 °F 39.2 °F 41.0 °F 87% 30.07 in 10.0 mi NW 10.4 mph - N/A   Light Drizzle
8:12 PM 44.6 °F 39.7 °F 41.0 °F 87% 30.07 in 10.0 mi NW 9.2 mph - N/A   Overcast
8:32 PM 44.6 °F 39.2 °F 41.0 °F 87% 30.09 in 10.0 mi NW 10.4 mph - N/A   Light Drizzle
8:52 PM 44.6 °F 39.2 °F 41.0 °F 87% 30.10 in 10.0 mi NW 10.4 mph - N/A Rain Rain
9:12 PM 44.6 °F 39.7 °F 41.0 °F 87% 30.11 in 10.0 mi NW 9.2 mph - N/A Rain Light Rain
9:32 PM 44.6 °F 40.7 °F 39.2 °F 81% 30.11 in 10.0 mi NW 6.9 mph - N/A   Overcast
9:53 PM 44.6 °F 40.7 °F 39.2 °F 81% 30.12 in 10.0 mi NW 6.9 mph - N/A   Overcast
10:13 PM 44.6 °F 40.7 °F 39.2 °F 81% 30.14 in 10.0 mi WNW 6.9 mph - N/A   Overcast
10:53 PM 42.8 °F 40.1 °F 37.4 °F 81% 30.15 in 10.0 mi NW 4.6 mph - N/A   Overcast
11:13 PM 42.8 °F 41.1 °F 37.4 °F 81% 30.15 in 10.0 mi WNW 3.5 mph - N/A   Overcast
11:33 PM 42.8 °F 40.1 °F 37.4 °F 81% 30.15 in 10.0 mi WNW 4.6 mph - N/A   Overcast
11:53 PM 42.8 °F 41.1 °F 37.4 °F 81% 30.15 in 10.0 mi West 3.5 mph - N/A   Overcast